Regional Weather Roundup
Issued by NWS

Home | Current Version | Previous Version | Graphics & Text | Print | Product List | Glossary On
Versions: 1 2 3 4 5 6 7 8 9 10 11 12 13 14 15 16 17 18 19 20 21 22 23 24 25 26 27 28 29 30 31 32 33 34 35 36 37 38 39 40 41 42 43 44 45 46 47 48 49 50
000
ASUS43 KDMX 260308
RWRIA

WEATHER ROUNDUP FOR IOWA
NATIONAL WEATHER SERVICE DES MOINES IA
1000 PM CDT WED MAY 25 2016

NOTE: "FAIR" INDICATES FEW OR NO CLOUDS BELOW 12,000 FEET WITH NO
SIGNIFICANT WEATHER AND/OR OBSTRUCTIONS TO VISIBILITY.

* - THESE STATIONS ARE NOT NWS STATIONS...THUS NOT UNDER NWS
QUALITY CONTROL.  THEY ALSO DO NOT REPORT WEATHER SUCH
AS PRECIPITATION OR FOG.

IAZ001>003-012>014-020>022-031>034-043>046-260400-
   NORTHWEST IOWA

CITY           SKY/WX    TMP DP  RH WIND       PRES   REMARKS
CARROLL *      MOCLDY    70  66  88 S8        29.83S
CHEROKEE *     CLEAR     70  64  83 S7        29.82R
DENISON *      PTCLDY    70  66  88 S7        29.82R
LE MARS *      MOCLDY    73  64  73 S7        29.82R
ORANGE CITY *  CLEAR     70  64  83 S6        29.83R
SHELDON *      MOCLDY    70  63  78 S5        29.81R
SIOUX CITY     CLEAR     73  65  75 S8        29.80R
SPENCER        CLEAR     71  60  68 S5        29.81R
STORM LAKE *   CLEAR     70  63  78 S10       29.84R
$$

IAZ055>058-069>071-079>083-090>094-260400-
   SOUTHWEST IOWA

CITY           SKY/WX    TMP DP  RH WIND       PRES   REMARKS
ATLANTIC *     CLOUDY    72  68  88 CALM      29.85R
AUDUBON *      PTCLDY    70  64  83 CALM      29.86R
CLARINDA *       N/A     72  68  88 MISG      29.87R
COUNCIL BLFS * PTCLDY    70  68  94 S5        29.84R
CRESTON *      CLOUDY    72  66  83 S6        29.88R
HARLAN  *      CLEAR     70  68  94 CALM      29.87S
LAMONI         CLOUDY    73  65  75 SE6       29.87R
RED OAK *      CLEAR     72  68  88 CALM      29.85R
SHENANDOAH *   CLOUDY    72  70  94 E3        29.85R
$$

IAZ047>049-059>061-072>074-084-260400-
   CENTRAL IOWA

CITY           SKY/WX    TMP DP  RH WIND       PRES   REMARKS
AMES           CLOUDY    71  64  78 SE6       29.85S
ANKENY *       CLOUDY    73  66  78 CALM      29.85S
BOONE *        CLOUDY    70  66  88 SE5       29.85S
CHARITON *     CLOUDY    73  66  78 S6        29.87R
DES MOINES     MOCLDY    76  64  66 SE6       29.85S
GRINNELL*      CLOUDY    73  64  73 SE3       29.88S
KNOXVILLE *    CLOUDY    75  63  64 S3        29.85S
MARSHALLTOWN   CLOUDY    73  62  68 CALM      29.86R
NEWTON *       CLOUDY    73  68  83 SE5       29.86S
PELLA *        PTCLDY    73  66  78 CALM      29.87F
PERRY *        CLOUDY    72  68  88 S6        29.85S
$$

IAZ004>006-015-016-023>025-035-036-260400-
   NORTH CENTRAL IOWA

CITY           SKY/WX    TMP DP  RH WIND       PRES   REMARKS
ALGONA *       PTCLDY    72  63  73 S10       29.83R
CLARION *      CLOUDY    70  66  88 S13       29.84S
ESTHERVILLE    PTCLDY    70  58  65 S3        29.82R
FORT DODGE *   CLOUDY    72  63  73 S8        29.85R
MASON CITY     MOCLDY    68  65  90 S9        29.85R
FOREST CITY *  MOCLDY    68  61  77 S7        29.84R
WEBSTER CITY * MOCLDY    72  64  78 S10       29.83S
IOWA FALLS *   CLOUDY    72  63  73 S6        29.87R
$$

IAZ007>011-017>019-026>030-037>042-050>054-066-260400-
   NORTHEAST IOWA

CITY           SKY/WX    TMP DP  RH WIND       PRES   REMARKS
CEDAR RAPIDS   CLOUDY    72  62  71 SE5       29.88R
CHARLES CITY * CLOUDY    72  63  73 S5        29.87R
CLINTON *      CLOUDY    72  60  66 SW7       29.91R
DECORAH *      CLEAR     70  63  78 S5        29.86R
DUBUQUE        PTCLDY    68  58  70 S9        29.90R
MONTICELLO *   CLOUDY    73  59  60 S7        29.89R
OELWEIN *      CLOUDY    72  61  68 S8        29.88R
WATERLOO       CLOUDY    73  59  61 S7        29.85R
$$

IAZ064-065-067-068-078-260400-
   EAST CENTRAL IOWA

CITY           SKY/WX    TMP DP  RH WIND       PRES   REMARKS
DAVENPORT      CLEAR     71  58  63 S5        29.91R
IOWA CITY      CLOUDY    72  61  68 SE5       29.90R
MT. PLEASANT * PTCLDY    75  66  73 S6        29.90S
MUSCATINE *    CLOUDY    72  63  73 CALM      29.90R
QUAD CITIES    CLEAR     69  61  75 CALM      29.89R
$$

IAZ062-063-075>077-085>089-095>099-260400-
   SOUTHEAST IOWA

CITY           SKY/WX    TMP DP  RH WIND       PRES   REMARKS
BURLINGTON     PTCLDY    73  63  70 S6        29.91R
FAIRFIELD *      N/A    N/A N/A N/A MISG        N/A
FORT MADISON * CLEAR     73  64  73 S5        29.92R
KEOKUK *       CLEAR     75  63  64 S5        29.90S
OSKALOOSA *    MOCLDY    75  63  64 S7        29.88S
OTTUMWA        CLOUDY    75  64  68 S6        29.87S
WASHINGTON *   CLOUDY    73  68  83 S5        29.90S
$$

ABBREVIATIONS USED IN REMARKS
   TC - TEMPERATURES IN CELSIUS
  WCI - WIND CHILL INDEX
   HX - HEAT INDEX
  VSB - VISIBILITY
$$





USA.gov is the U.S. government's official web portal to all federal, state and local government web resources and services.